Regional Weather Roundup
Issued by NWS Wakefield, VA

Home | Current Version | Previous Version | Text Only | Print | Product List | Glossary On
Versions: 1 2 3 4 5 6 7 8 9 10 11 12 13 14 15 16 17 18 19 20 21 22 23 24 25 26 27
000
ASUS41 KAKQ 232015
RWRAKQ

REGIONAL WEATHER ROUNDUP
NATIONAL WEATHER SERVICE WAKEFIELD VA
300 PM EST TUE JAN 23 2018

Note: "fair" indicates few or no clouds below 12,000 feet with no
significant weather and/or obstructions to visibility. * = Denotes
station may not report precipitation (e.g., rain,snow,etc.),
thunder or fog.

VAZ042-051-052>054-056-232100-
NORTHERN VIRGINIA

CITY           SKY/WX    TMP DP  RH WIND       PRES   REMARKS
WASH NATIONAL  PTSUNNY   61  45  55 NW21G30   29.63R
DULLES         FAIR      58  41  53 NW18G26   29.64R
FORT BELVOIR   FAIR      61  44  54 NW17G26   29.62R
QUANTICO       PTSUNNY   70  37  29 NW22G35   29.61R
FREDERICKSBRG* FAIR      68  41  37 W21G26    29.60R
STAFFORD*      FAIR      69  34  27 W16G24    29.65R
WARRENTON      FAIR      65  34  31 NW14G26   29.63R
CULPEPER*      FAIR      65  34  31 NW12G24   29.65R
MANASSAS*      FAIR      60  40  47 NW14G26   29.64R
LEESBURG*      FAIR      59  41  51 NW16G25   29.66R
WINCHESTER     FAIR      52  32  46 W25G31    29.70R
FRONT ROYAL*   FAIR      54  34  47 W12G31    29.65R
LURAY*         FAIR      55  30  38 W18G31    29.70R
$$

VAZ048-049-060>072-079>083-232100-
CENTRAL AND SOUTH CENTRAL VIRGINIA

CITY           SKY/WX    TMP DP  RH WIND       PRES   REMARKS
RICHMOND       FAIR      72  41  32 SW26G33   29.60R
CHESTERFIELD*  NOT AVBL
PETERSBURG*    NOT AVBL
HANOVER        FAIR      69  47  45 W16G31    29.62R
TAPPAHANNOCK*  PTSUNNY   73  46  39 W13G24    29.59R
QUINTON*       FAIR      72  41  32 SW18G25   29.59S
CHARLOTTSVILLE FAIR      65  33  30 NW14G23   29.66R
GORDONSVILLE*  FAIR      65  29  25 W14G29    29.63R
ORANGE*        FAIR      64  32  29 W20G32    29.63R
LOUISA*        FAIR      67  28  22 W16G29    29.67R
BUMPASS*       FAIR      68  29  23 W16G32    29.61R
FARMVILLE*     FAIR      67  30  25 SW14G21   29.66R
CREWE*         FAIR      69  46  43 W12G23    29.64R
FORT PICKETT*  FAIR      69  38  32 W16       29.64R
CHASE CITY*    FAIR      69  37  31 W14G24    29.67R
CLARKSVILLE*   FAIR      70  36  28 SW16G30   29.67R
SOUTH HILL*    FAIR      69  38  32 W9G26     29.71S
LAWRENCEVILLE* FAIR      70  37  30 SW10G31   29.64S
EMPORIA*       FAIR      70  43  37 SW17G26   29.66S
$$

VAZ088>098-232100-
SOUTHEAST VIRGINIA

CITY           SKY/WX    TMP DP  RH WIND       PRES   REMARKS
NORFOLK        FAIR      73  56  54 SW22G36   29.61F
VIRGINIA BEACH PTSUNNY   72  56  57 SW25G37   29.62F
NORFOLK NAVAL  FAIR      72  55  55 SW13G30   29.63F
WEST POINT*    FAIR      72  39  30 SW18G30   29.61R
SALUDA*        FAIR      72  51  48 SW12G29   29.59S
NEWPORT NEWS   FAIR      72  55  55 SW15G26   29.61F
LANGLEY AFB    FAIR      72  57  58 SW24G31   29.61F
FORT EUSTIS    FAIR      73  49  42 SW16G31   29.58F
WILLIAMSBURG*  FAIR      75  55  50 W21G30    29.61S
HR EXEC AP*    NOT AVBL
FRANKLIN*      FAIR      73  47  39 SW18G30   29.64F
US460-WAKEFLD  FAIR      73  46  38 SW18G32   29.62S
$$

VAZ020-022-025-037-045-232100-
WEST CENTRAL AND SOUTHWEST VIRGINIA

CITY           SKY/WX    TMP DP  RH WIND       PRES   REMARKS
STAUNTON*      FAIR      54  30  40 W16G28    29.73R
WAYNESBORO*    FAIR      56  32  40 W9G21     29.69R
HOT SPRINGS VA PTSUNNY   41  23  49 W21G29    29.71R
LYNCHBURG      FAIR      60  26  27 W10G20    29.71R
DANVILLE       FAIR      66  41  40 W16G28    29.70R
SOUTH BOSTON*  FAIR      69  37  29 W14G21    29.68R
MARTINSVILLE   FAIR      62  26  25 NW9G21    29.77R
ROANOKE        FAIR      58  28  32 W20G25    29.75R
BLACKSBURG     FAIR      52  28  39 W13G24    29.79R
DUBLIN*        FAIR      52  28  39 W16       29.79R
MARION*        FAIR      47  25  41 W21       29.82S
HILLSVILLE*    FAIR      47  27  45 W18G26    29.78R
RICHLANDS*     MOCLDY    45  28  50 W15G22    29.84R
WISE*          CLOUDY    43  30  61 SW13G18   29.87R
ABINGDON*      PTSUNNY   48  28  45 W16G23    29.87R
$$

MDZ021>025-VAZ099-100-232100-
SOUTHERN MARYLAND AND THE DELMARVA PENINSULA

CITY           SKY/WX    TMP DP  RH WIND       PRES   REMARKS
PATUXENT RIVER NOT AVBL
BAY BRIDGE APT CLOUDY    52  50  93 NW8       29.60R FOG
LEONARDTOWN    FAIR      68  52  56 SW14G21   29.59R
DOVER          MOSUNNY   59  59 100 W6        29.56R
GEORGETOWN     FAIR      69  58  67 SW20G29   29.55F
EASTON         LGT RAIN  61  54  77 CALM      29.62R
CAMBRIDGE      MOSUNNY   68  57  68 W7        29.56F
SALISBURY      FAIR      67  61  81 SW18G25   29.56F
OCEAN CITY     CLOUDY    52  52 100 SW9G18    29.59F FOG
WALLOPS ISLAND CLOUDY    52  51  97 S17       29.60F FOG
ACCOMACK*      FAIR      70  60  70 SW12G26   29.60F
$$

NCZ012>017-030>032-232100-
NORTH CENTRAL AND EASTERN NORTH CAROLINA

CITY           SKY/WX    TMP DP  RH WIND       PRES   REMARKS
ROANOKE RAPIDS FAIR      70  45  40 SW22G37   29.67S
RALEIGH        FAIR      69  37  30 SW23G30   29.71S
ELIZABETH CITY FAIR      71  70  96 SW17G23   29.67F
AHOSKIE*       FAIR      71  52  50 SW6       29.66F
EDENTON*       PTSUNNY   71  59  66 SW14G21   29.69F
CURRITUCK*     FAIR      67  60  78 SW8       29.67F
KILL DEVIL HLS FAIR      63  63 100 S7        29.69F
MANTEO         FAIR      57  55  92 S17       29.71F
CAPE HATTERAS  NOT AVBL
TARBORO*       NOT AVBL
GOLDSBORO      FAIR      73  57  57 SW22G32   29.71S
WASHINGTON     PTSUNNY   74  58  57 SW14G25   29.70F
GREENVILLE     FAIR      72  59  64 W10G17    29.74S
NEW BERN       FAIR      73  60  63 SW18G26   29.74F
WILMINGTON     FAIR      71  61  70 SW15G23   29.78F
$$

VAZ048-232100-
ELSEWHERE

CITY           SKY/WX    TMP DP  RH WIND       PRES   REMARKS
HARRISBURG PA  CLOUDY    51  40  65 W13G22    29.62R
BALTIMORE      PTSUNNY   58  44  60 W20G26    29.61R
ANNAPOLIS      CLOUDY    55  52  89 NW7       29.59R
ANDREWS AFB    PTSUNNY   59  47  64 NW20G30   29.60R
PHILADELPHIA   PTSUNNY   61  45  55 W16       29.56R
HENDERSON NC   FAIR      67  31  26 SW9G20    29.69R
GREENSBORO     FAIR      65  38  36 NW16      29.73R
ROCKY MOUNT    FAIR      71  47  42 SW25G33   29.70F
$$

VAZ100-232100-
MARINE

STATION/POSITION TIME  TEMP    WIND        PRES    WAVE   SWELL
                       AIR SEA DIR/SP/G            HT/PER HT/PER
                 (UTC) (F)     (DEG/KT/KT) (MB)    (FT/S) (FT/S)
BRANDYWINE LGT   1948   55     320/ 20/ 31 1001.0F
CAPE MAY NJ      1948   52 37  160/ 12/ 15  999.8F
LEWES DE         1948   67 36  240/  8/ 12 1000.2F
15NM E FENWICK I 1950   46 39  190/ 19/ 21 1001.8F   7/ 7
OCEAN-CITY-INLET 1948   44 38  220/ 16/ 20 1002.3F
WACHAPREAGUE VA  1948   55 46  220/  9/ 13 1002.8F
THOMAS POINT MD  2000   53 35  340/ 12/ 15   N/A
GOOSES REEF MD   2000   54 35  280/ 14/ 27 1002.1    1/ 2
COVE POINT MD    1948          280/ 12/ 23 1001.7S
SOLOMONS ISLAND  1948   61 36  250/ 14/ 18 1000.9S
BISHOPS HEAD MD  1948   52 43  200/ 11/ 14 1001.4F
PINEY POINT MD   1948          300/ 11/ 14   N/A
POTOMAC MD       2000   55 36  330/ 12/ 16 1000.5    2/ 3
CAMBRIDGE MD     1948   68 35              1001.6F
LEWISETTA VA     1948   69 41  250/ 22/ 28 1001.1F
RAPPAHANNOCK LGT 1948          180/ 17/ 17 1002.8F
STINGRAY PT      2000   60 36  260/ 14/ 19 1005.4    1/ 3
YORK RVR RNG VA  1948   64     240/ 18/ 21 1002.8F
YORKTOWN VA      1948   71 39  230/ 13/ 19 1001.9F
DOMINION TERM VA 1948   61     230/ 15/ 18 1003.2F
KIPTOPEKE VA     1948      38  250/ 11/ 15   N/A
CAPE HENRY VA    1948   72     230/ 14/ 21   N/A
WILLOUBY STN VA  1948          230/ 25/ 26 1002.3F
S CRANEY ISL VA  1948   71     230/ 14/ 19 1002.9F
CAPE HENRY BUOY  1930      41                N/A     5/ 7
1ST LANDING BUOY 2000   60 38  240/ 17/ 21 1003.1    2/ 3
CAPE CHARLES BUO 1951      40                N/A     4/ 7
64NM E OF VA BCH 1950   59 56  200/ 21/ 25 1005.4F   8/ 8   3/11
DUCK PIER NC     1948   63 42  190/ 17/ 20 1004.5F
44100 DUCK FRF   1945      41                N/A     5/ 7
44056 DUCK FRF   2000      42                N/A     4/ 8
OREGON INLET NC  1942   49 46  190/ 16/ 17 1006.8F
HATTERAS NC      1948   62 55  230/ 15/ 19 1007.8F
DIAMOND SHLS NC  2000   68 70  230/ 25/ 33 1008.6
CAPE LOOKOUT NC  2000          220/ 12/ 15 1008.9F
$$




USA.gov is the U.S. government's official web portal to all federal, state and local government web resources and services.